Retour au catalogue

GAOFEN 11 3

ActifScienceSSO
NORAD 49492·PAYLOAD·🇨🇳 China

Lancé Nov 20, 2021 depuis Taiyuan Satellite Launch Center

Loading…

Prochains Passages (prochaines 24 heures)

TLE

FraisSource: Space-Track

Époque: Sep 14, 2026, 15:07 UTC

1 49492U 21107A   26257.63036674  .00003789  00000-0  16090-3 0  9992
2 49492  97.2000 298.2547 0005876 114.6877 245.4973 15.23640917268250

Suivez GAOFEN 11 3 en temps réel avec AllMySat

Download on the App Store